Orbital Elements at Epoch 2459200.5 (2020-Dec-17.0) TDB
Reference: JPL 11 (heliocentric ecliptic J2000)
Element | Value | Uncertainty (1-sigma) | Units |
e | .1167042747549608 | 7.368e-08 | |
a | 3.117806595208449 | 2.887e-08 | au |
q | 2.753945237688414 | 2.206e-07 | au |
i | 9.61989226675241 | 7.017e-06 | deg |
node | 7.322308790314876 | 3.2642e-05 | deg |
peri | 43.47056724875233 | 4.1742e-05 | deg |
M | 236.4340940447526 | 2.6382e-05 | deg |
tp | 2459890.689488654828 (2022-Nov-07.18948865) | 0.00015135 | TDB |
period | 2010.815313454888 5.51 | 2.7929e-05 7.647e-08 | d yr |
n | .1790318571731309 | 2.4867e-09 | deg/d |
Q | 3.481667952728485 | 3.2239e-08 | au |
|
| | Orbit Determination Parameters
Additional Information
|